Terug naar catalogus

STARLINK-4789

ActiefCommunicatieVLEO
NORAD 53868·PAYLOAD·🇺🇸 United States

Gelanceerd Sep 19, 2022 vanaf Cape Canaveral Space Force Station

Loading…

Volgende Passages (komende 24 uur)

TLE

VersSource: CelesTrak SupGP

Epoch: Sep 15, 2026, 02:43 UTC

1 53868C 22114BC  26258.11368056  .00032126  00000+0  91957-3 0  2588
2 53868  53.1570 118.9882 0001199  80.2620 175.6534 15.35368550    11

Volg STARLINK-4789 in realtime met AllMySat

Download on the App Store